When you browse on this site, cookies collect data to enhance your experience and personalize the content and advertising you see.
Visit our Privacy Policy to learn more. By continuing to use the site, you agree to this use of cookies and data.
  • In Belgium
  • List of Countries
  • For 7 days
  • Water Temperature
  • Satellite Maps
  • Weather Map
  • Weather Widgets
  • user-avatar
    Login

    Hourly Weather Murom

    Today, 16 January, Wednesday

    Time Temperature Precipitation Wind Pressure Humidity
    00:00 -9°C° 0 mm 3 mps 743 mmHg 92%
    01:00 -9°C° 0 mm 3 mps 742 mmHg 92%
    02:00 -9°C° 0 mm 3 mps 742 mmHg 93%
    03:00 -8°C° 0 mm 2 mps 742 mmHg 94%
    04:00 -8°C° 0 mm 2 mps 742 mmHg 94%
    05:00 -8°C° 0 mm 2 mps 742 mmHg 95%
    06:00 -8°C° 0 mm 2 mps 742 mmHg 95%
    07:00 -8°C° 0 mm 2 mps 741 mmHg 95%
    08:00 -7°C° 0 mm 1 mps 741 mmHg 96%
    09:00 -8°C° 0 mm 2 mps 741 mmHg 96%
    10:00 -7°C° 0 mm 1 mps 741 mmHg 95%
    11:00 -6°C° 0 mm 1 mps 741 mmHg 94%
    12:00 -6°C° 0 mm 1 mps 741 mmHg 93%
    13:00 -6°C° 0 mm 1 mps 741 mmHg 93%
    14:00 -6°C° 0 mm 1 mps 741 mmHg 93%
    15:00 -6°C° 0 mm 1 mps 741 mmHg 93%
    16:00 -7°C° 0 mm 1 mps 741 mmHg 93%
    17:00 -8°C° 0 mm 2 mps 741 mmHg 93%
    18:00 -9°C° 0 mm 2 mps 742 mmHg 93%
    19:00 -9°C° 0 mm 2 mps 742 mmHg 93%
    20:00 -9°C° 0 mm 2 mps 743 mmHg 93%
    21:00 -10°C° 0 mm 2 mps 743 mmHg 93%
    22:00 -10°C° 0 mm 2 mps 744 mmHg 93%
    23:00 -10°C° 0 mm 2 mps 744 mmHg 93%

    Tomorrow, 17 January, Thursday

    Time Temperature Precipitation Wind Pressure Humidity
    00:00 -10°C° 0 mm 2 mps 745 mmHg 93%
    01:00 -12°C° 0 mm 3 mps 745 mmHg 93%
    02:00 -12°C° 0 mm 3 mps 745 mmHg 93%
    03:00 -12°C° 0 mm 3 mps 745 mmHg 93%
    04:00 -12°C° 0 mm 3 mps 746 mmHg 93%
    05:00 -12°C° 0 mm 3 mps 746 mmHg 93%
    06:00 -12°C° 0 mm 4 mps 746 mmHg 93%
    07:00 -12°C° 0 mm 4 mps 747 mmHg 93%
    08:00 -11°C° 0 mm 4 mps 747 mmHg 93%
    09:00 -11°C° 0 mm 4 mps 747 mmHg 92%
    10:00 -11°C° 0 mm 4 mps 748 mmHg 91%
    11:00 -10°C° 0 mm 4 mps 748 mmHg 90%
    12:00 -10°C° 0 mm 5 mps 748 mmHg 88%
    13:00 -10°C° 0 mm 5 mps 748 mmHg 88%
    14:00 -10°C° 0 mm 5 mps 748 mmHg 87%
    15:00 -10°C° 0 mm 5 mps 748 mmHg 87%
    16:00 -10°C° 0 mm 6 mps 747 mmHg 87%
    17:00 -10°C° 0 mm 6 mps 747 mmHg 88%
    18:00 -10°C° 0 mm 6 mps 747 mmHg 88%
    19:00 -11°C° 0.1 mm 7 mps 747 mmHg 89%
    20:00 -11°C° 0.1 mm 7 mps 746 mmHg 89%
    21:00 -9°C° 0.1 mm 7 mps 746 mmHg 90%
    22:00 -9°C° 0.3 mm 7 mps 745 mmHg 90%
    23:00 -9°C° 0.3 mm 7 mps 745 mmHg 90%

    Day after tomorrow, 18 January, Friday

    Time Temperature Precipitation Wind Pressure Humidity
    00:00 -9°C° 0.3 mm 7 mps 744 mmHg 89%
    01:00 -8°C° 0.2 mm 8 mps 744 mmHg 88%
    02:00 -7°C° 0.2 mm 8 mps 743 mmHg 86%
    03:00 -6°C° 0.2 mm 8 mps 743 mmHg 84%
    04:00 -6°C° 0.1 mm 8 mps 743 mmHg 84%
    05:00 -6°C° 0.1 mm 8 mps 742 mmHg 85%
    06:00 -5°C° 0.1 mm 8 mps 742 mmHg 85%
    07:00 -4°C° 0.1 mm 7 mps 742 mmHg 85%
    08:00 -3°C° 0.1 mm 7 mps 743 mmHg 85%
    09:00 -2°C° 0.1 mm 7 mps 743 mmHg 85%
    10:00 -2°C° 0 mm 7 mps 743 mmHg 86%
    11:00 -2°C° 0 mm 6 mps 744 mmHg 87%
    12:00 -2°C° 0 mm 6 mps 744 mmHg 88%
    13:00 -2°C° 0 mm 6 mps 744 mmHg 88%
    14:00 -1°C° 0 mm 5 mps 744 mmHg 88%
    15:00 -1°C° 0 mm 5 mps 744 mmHg 89%
    16:00 -1°C° 0 mm 5 mps 744 mmHg 89%
    17:00 -1°C° 0 mm 5 mps 744 mmHg 89%
    18:00 -2°C° 0 mm 5 mps 744 mmHg 89%
    19:00 -1°C° 0.3 mm 5 mps 743 mmHg 89%
    20:00 -2°C° 0.3 mm 6 mps 743 mmHg 89%
    21:00 -2°C° 0.3 mm 6 mps 742 mmHg 90%
    22:00 -2°C° 0.7 mm 6 mps 742 mmHg 89%
    23:00 -2°C° 0.7 mm 6 mps 742 mmHg 89%

    19 January, Saturday

    Time Temperature Precipitation Wind Pressure Humidity
    00:00 -2°C° 0.7 mm 6 mps 742 mmHg 88%
    01:00 -2°C° 0.1 mm 5 mps 742 mmHg 88%
    02:00 -4°C° 0.1 mm 5 mps 742 mmHg 87%
    03:00 -5°C° 0.1 mm 5 mps 742 mmHg 86%
    04:00 -5°C° 0.1 mm 5 mps 743 mmHg 87%
    05:00 -6°C° 0.1 mm 5 mps 743 mmHg 87%
    06:00 -6°C° 0.1 mm 5 mps 744 mmHg 88%
    07:00 -10°C° 0 mm 5 mps 745 mmHg 88%
    08:00 -11°C° 0 mm 4 mps 746 mmHg 89%
    09:00 -14°C° 0 mm 4 mps 747 mmHg 89%
    10:00 -13°C° 0 mm 5 mps 747 mmHg 88%
    11:00 -12°C° 0 mm 5 mps 748 mmHg 88%
    12:00 -11°C° 0 mm 6 mps 748 mmHg 87%
    13:00 -11°C° 0 mm 6 mps 748 mmHg 86%
    14:00 -10°C° 0 mm 6 mps 748 mmHg 86%
    15:00 -9°C° 0 mm 6 mps 749 mmHg 85%
    16:00 -8°C° 0 mm 5 mps 749 mmHg 84%
    17:00 -8°C° 0 mm 5 mps 749 mmHg 84%
    18:00 -8°C° 0 mm 5 mps 749 mmHg 84%
    19:00 -8°C° 0 mm 5 mps 749 mmHg 84%
    20:00 -10°C° 0 mm 5 mps 750 mmHg 85%
    21:00 -10°C° 0 mm 5 mps 750 mmHg 85%
    22:00 -11°C° 0 mm 5 mps 750 mmHg 87%
    23:00 -11°C° 0 mm 5 mps 750 mmHg 88%

    20 January, Sunday

    Time Temperature Precipitation Wind Pressure Humidity
    00:00 -11°C° 0 mm 5 mps 751 mmHg 89%
    01:00 -11°C° 0 mm 5 mps 751 mmHg 89%
    02:00 -11°C° 0 mm 5 mps 751 mmHg 88%
    03:00 -9°C° 0 mm 4 mps 752 mmHg 88%
    04:00 -9°C° 0 mm 4 mps 752 mmHg 89%
    05:00 -10°C° 0 mm 4 mps 752 mmHg 89%
    06:00 -10°C° 0 mm 4 mps 752 mmHg 90%
    07:00 -10°C° 0 mm 4 mps 752 mmHg 90%
    08:00 -10°C° 0 mm 4 mps 752 mmHg 90%
    09:00 -9°C° 0 mm 4 mps 752 mmHg 89%
    10:00 -10°C° 0 mm 4 mps 752 mmHg 89%
    11:00 -11°C° 0 mm 5 mps 752 mmHg 90%
    12:00 -11°C° 0 mm 5 mps 753 mmHg 90%
    13:00 -11°C° 0.1 mm 5 mps 752 mmHg 89%
    14:00 -9°C° 0.1 mm 4 mps 752 mmHg 89%
    15:00 -9°C° 0.1 mm 4 mps 752 mmHg 88%
    16:00 -9°C° 0 mm 4 mps 753 mmHg 89%
    17:00 -9°C° 0 mm 4 mps 753 mmHg 91%
    18:00 -8°C° 0 mm 3 mps 753 mmHg 92%
    19:00 -8°C° 0 mm 3 mps 753 mmHg 92%
    20:00 -8°C° 0 mm 3 mps 753 mmHg 93%
    21:00 -9°C° 0 mm 3 mps 753 mmHg 94%
    22:00 -9°C° 0 mm 3 mps 753 mmHg 94%
    23:00 -9°C° 0 mm 3 mps 753 mmHg 95%

    21 January, Monday

    Time Temperature Precipitation Wind Pressure Humidity
    00:00 -10°C° 0 mm 3 mps 753 mmHg 95%
    01:00 -10°C° 0.1 mm 3 mps 753 mmHg 95%
    02:00 -10°C° 0.1 mm 3 mps 753 mmHg 94%
    03:00 -9°C° 0.1 mm 3 mps 753 mmHg 94%
    04:00 -10°C° 0 mm 3 mps 753 mmHg 94%
    05:00 -10°C° 0 mm 3 mps 753 mmHg 94%
    06:00 -12°C° 0 mm 3 mps 753 mmHg 94%
    07:00 -13°C° 0 mm 3 mps 753 mmHg 94%
    08:00 -13°C° 0 mm 3 mps 753 mmHg 94%
    09:00 -13°C° 0 mm 3 mps 753 mmHg 94%
    10:00 -13°C° 0.1 mm 3 mps 753 mmHg 93%
    11:00 -12°C° 0.1 mm 3 mps 753 mmHg 93%
    12:00 -10°C° 0.1 mm 2 mps 753 mmHg 92%
    13:00 -10°C° 0 mm 2 mps 753 mmHg 92%
    14:00 -8°C° 0 mm 1 mps 753 mmHg 92%
    15:00 -8°C° 0 mm 1 mps 752 mmHg 92%
    16:00 -9°C° 0 mm 1 mps 752 mmHg 94%
    17:00 -10°C° 0 mm 1 mps 752 mmHg 95%
    18:00 -11°C° 0 mm 0 mps 752 mmHg 96%
    19:00 -11°C° 0 mm 1 mps 752 mmHg 96%
    20:00 -10°C° 0 mm 1 mps 752 mmHg 96%
    21:00 -10°C° 0 mm 1 mps 751 mmHg 97%
    22:00 -11°C° 0 mm 1 mps 751 mmHg 97%
    23:00 -13°C° 0 mm 2 mps 751 mmHg 97%
    Show more